Location: Black Swamp Observatory
(41.3920°N, 84.1250°W)
Time: 19:59:17
(UTC-05:00)

Transit 2A - Visible Passes

Search period start: 22 January 2022 00:00
Search period end: 01 February 2022 00:00
Orbit: 591 x 967 km, 66.7° (Epoch: 22 January)

Date Brightness Start Highest point End Pass type
(mag) Time Alt. Az. Time Alt. Az. Time Alt. Az.
22 Jan 8.1 20:04:49 10° N 20:06:58 18° N 20:06:58 18° N visible
23 Jan 7.9 19:30:55 10° N 19:34:01 18° NNE 19:34:01 18° NNE visible
23 Jan 8.6 21:13:15 10° NNW 21:14:31 17° NNW 21:14:31 17° NNW visible
24 Jan 8.0 18:57:10 10° N 19:00:25 14° NNE 19:01:07 14° NE visible
24 Jan 7.9 20:39:02 10° NNW 20:41:37 25° NNW 20:41:37 25° NNW visible
25 Jan 8.2 18:23:47 10° N 18:25:40 11° NNE 18:27:31 10° NE visible
25 Jan 7.2 20:04:53 10° NNW 20:08:49 34° N 20:08:49 34° N visible
25 Jan 8.9 21:48:36 10° NW 21:49:21 13° NW 21:49:21 13° NW visible
26 Jan 7.0 19:30:49 10° NNW 19:36:08 32° NE 19:36:08 32° NE visible
26 Jan 8.1 21:14:01 10° NW 21:16:39 25° NW 21:16:39 25° NW visible
27 Jan 7.3 18:56:48 10° N 19:01:43 25° NE 19:03:34 21° ENE visible
27 Jan 7.0 20:39:35 10° NW 20:44:07 48° WNW 20:44:07 48° WNW visible
28 Jan 7.7 18:22:53 10° N 18:27:08 19° NE 18:31:08 10° E visible
28 Jan 6.0 20:05:17 10° NNW 20:11:20 89° ENE 20:11:46 78° SE visible
28 Jan 9.0 21:51:06 10° WNW 21:52:19 12° W 21:52:19 12° W visible
29 Jan 6.1 19:31:03 10° NNW 19:37:03 64° ENE 19:39:40 32° SE visible
29 Jan 8.4 21:15:36 10° WNW 21:19:36 19° WSW 21:20:14 19° WSW visible
30 Jan 6.5 18:56:54 10° NNW 19:02:42 46° NE 19:07:54 10° SE visible
30 Jan 7.9 20:40:42 10° NW 20:45:38 28° WSW 20:48:31 18° SSW visible
31 Jan 6.9 18:22:48 10° NNW 18:28:15 34° NE 18:33:15 10° ESE visible
31 Jan 7.3 20:06:06 10° NW 20:11:36 41° WSW 20:16:34 10° S visible
